Time,TemperatureF,DewpointF,PressureIn,WindDirection,WindDirectionDegrees,WindSpeedMPH,WindSpeedGustMPH,Humidity,HourlyPrecipIn,Conditions,Clouds,dailyrainin,SoftwareType,DateUTC
2013-01-03 00:10:00,63.8,62.6,30.05,SW,223,0.0,0.0,96,0.00,CLR,,0.00,WeatherDisplay:10.37,2013-01-03 05:10:00,
2013-01-03 00:20:00,63.7,62.5,30.05,SW,223,0.0,0.0,96,0.00,CLR,,0.00,WeatherDisplay:10.37,2013-01-03 05:20:00,
2013-01-03 00:30:00,63.7,62.5,30.05,WSW,242,0.0,2.0,96,0.00,CLR,,0.00,WeatherDisplay:10.37,2013-01-03 05:30:00,
2013-01-03 00:40:00,63.9,63.1,30.05,WSW,250,0.0,1.0,97,0.00,CLR,,0.00,WeatherDisplay:10.37,2013-01-03 05:40:00,
2013-01-03 00:50:00,64.1,63.2,30.05,WSW,251,0.0,2.0,97,0.00,CLR,,0.00,WeatherDisplay:10.37,2013-01-03 05:50:00,
2013-01-03 01:00:00,64.2,63.3,30.05,West,281,1.0,2.0,97,0.00,CLR,,0.00,WeatherDisplay:10.37,2013-01-03 06:00:00,
2013-01-03 01:10:00,64.1,63.2,30.05,WNW,293,1.0,3.0,97,0.00,CLR,,0.00,WeatherDisplay:10.37,2013-01-03 06:10:00,
2013-01-03 01:20:00,64.2,63.3,30.05,NNW,331,0.0,3.0,97,0.00,CLR,,0.00,WeatherDisplay:10.37,2013-01-03 06:20:00,
2013-01-03 01:30:00,64.1,63.3,30.05,NNW,333,0.0,3.0,97,0.00,CLR,,0.00,WeatherDisplay:10.37,2013-01-03 06:30:00,
2013-01-03 01:40:00,64.1,63.2,30.05,NNW,333,1.0,3.0,97,0.00,CLR,,0.00,WeatherDisplay:10.37,2013-01-03 06:40:00,
2013-01-03 01:50:00,64.1,63.2,30.05,NNW,333,0.0,2.0,97,0.00,CLR,,0.00,WeatherDisplay:10.37,2013-01-03 06:50:00,
2013-01-03 02:00:00,64.1,63.2,30.05,NNW,333,0.0,2.0,97,0.00,CLR,,0.00,WeatherDisplay:10.37,2013-01-03 07:00:00,
2013-01-03 02:10:00,64.0,63.1,30.05,NNW,333,0.0,1.0,97,0.00,CLR,,0.00,WeatherDisplay:10.37,2013-01-03 07:10:00,
2013-01-03 02:30:00,63.8,62.9,30.05,NNW,333,0.0,0.0,97,0.00,CLR,,0.00,WeatherDisplay:10.37,2013-01-03 07:30:00,
2013-01-03 02:40:00,63.7,62.8,30.04,NNW,333,0.0,0.0,97,0.00,CLR,,0.00,WeatherDisplay:10.37,2013-01-03 07:40:00,
2013-01-03 02:50:00,63.6,62.7,30.04,NNW,333,0.0,1.0,97,0.00,CLR,,0.00,WeatherDisplay:10.37,2013-01-03 07:50:00,
2013-01-03 03:00:00,63.5,62.7,30.04,NNW,333,0.0,0.0,97,0.00,CLR,,0.00,WeatherDisplay:10.37,2013-01-03 08:00:00,
2013-01-03 03:10:00,63.4,62.5,30.04,NNW,333,0.0,1.0,97,0.00,CLR,,0.00,WeatherDisplay:10.37,2013-01-03 08:10:00,
2013-01-03 03:20:00,63.3,62.4,30.04,NNW,333,0.0,0.0,97,0.00,CLR,,0.00,WeatherDisplay:10.37,2013-01-03 08:20:00,
2013-01-03 03:30:00,63.2,62.3,30.04,NNW,333,0.0,0.0,97,0.00,CLR,,0.00,WeatherDisplay:10.37,2013-01-03 08:30:00,
2013-01-03 03:40:00,63.0,62.2,30.04,NNW,333,0.0,0.0,97,0.00,CLR,,0.00,WeatherDisplay:10.37,2013-01-03 08:40:00,
2013-01-03 03:50:00,62.9,62.0,30.04,NNW,333,0.0,0.0,97,0.00,CLR,,0.00,WeatherDisplay:10.37,2013-01-03 08:50:00,
2013-01-03 04:00:00,62.7,61.8,30.04,NNW,333,0.0,0.0,97,0.00,CLR,,0.00,WeatherDisplay:10.37,2013-01-03 09:00:00,
2013-01-03 04:20:00,62.5,61.6,30.04,ENE,57,0.0,3.0,97,0.00,CLR,,0.00,WeatherDisplay:10.37,2013-01-03 09:20:00,
2013-01-03 04:30:00,62.6,61.7,30.03,East,88,0.0,3.0,97,0.00,CLR,,0.00,WeatherDisplay:10.37,2013-01-03 09:30:00,
2013-01-03 04:40:00,62.8,62.2,30.03,East,99,1.0,3.0,98,0.00,CLR,,0.00,WeatherDisplay:10.37,2013-01-03 09:40:00,
2013-01-03 04:50:00,63.0,62.4,30.03,East,101,1.0,3.0,98,0.00,CLR,,0.00,WeatherDisplay:10.37,2013-01-03 09:50:00,
2013-01-03 05:00:00,63.0,62.4,30.03,East,84,1.0,3.0,98,0.00,CLR,,0.00,WeatherDisplay:10.37,2013-01-03 10:00:00,
2013-01-03 05:10:00,62.9,62.3,30.03,East,96,1.0,3.0,98,0.00,CLR,,0.00,WeatherDisplay:10.37,2013-01-03 10:10:00,
2013-01-03 05:20:00,62.8,62.2,30.03,East,79,2.0,3.0,98,0.00,CLR,,0.00,WeatherDisplay:10.37,2013-01-03 10:20:00,
2013-01-03 05:30:00,62.7,62.1,30.03,East,83,0.0,2.0,98,0.00,CLR,,0.00,WeatherDisplay:10.37,2013-01-03 10:30:00,
2013-01-03 05:40:00,62.7,62.1,30.04,East,87,0.0,2.0,98,0.00,CLR,,0.00,WeatherDisplay:10.37,2013-01-03 10:40:00,
2013-01-03 05:50:00,62.6,62.0,30.04,East,86,0.0,3.0,98,0.00,CLR,,0.00,WeatherDisplay:10.37,2013-01-03 10:50:00,
2013-01-03 06:00:00,62.6,62.0,30.04,East,98,1.0,5.0,98,0.00,CLR,,0.00,WeatherDisplay:10.37,2013-01-03 11:00:00,
2013-01-03 06:10:00,62.6,62.0,30.04,ESE,114,2.0,6.0,98,0.00,CLR,,0.00,WeatherDisplay:10.37,2013-01-03 11:10:00,
2013-01-03 06:20:00,62.6,62.0,30.04,ESE,109,2.0,5.0,98,0.00,CLR,,0.00,WeatherDisplay:10.37,2013-01-03 11:20:00,
2013-01-03 06:30:00,62.5,61.9,30.04,ESE,109,2.0,6.0,98,0.00,CLR,,0.00,WeatherDisplay:10.37,2013-01-03 11:30:00,
2013-01-03 06:40:00,62.5,61.9,30.05,ESE,111,2.0,5.0,98,0.00,CLR,,0.00,WeatherDisplay:10.37,2013-01-03 11:40:00,
2013-01-03 06:50:00,62.4,61.8,30.06,ESE,102,2.0,6.0,98,0.00,CLR,,0.00,WeatherDisplay:10.37,2013-01-03 11:50:00,
2013-01-03 07:00:00,62.3,61.7,30.06,East,93,3.0,5.0,98,0.00,CLR,,0.00,WeatherDisplay:10.37,2013-01-03 12:00:00,
2013-01-03 07:10:00,62.2,61.6,30.06,East,97,1.0,5.0,98,0.00,CLR,,0.00,WeatherDisplay:10.37,2013-01-03 12:10:00,
2013-01-03 07:20:00,62.2,61.6,30.07,East,101,3.0,5.0,98,0.00,CLR,,0.00,WeatherDisplay:10.37,2013-01-03 12:20:00,
2013-01-03 07:30:00,62.3,61.7,30.07,East,82,1.0,3.0,98,0.00,CLR,,0.00,WeatherDisplay:10.37,2013-01-03 12:30:00,
2013-01-03 07:40:00,62.4,61.8,30.07,ESE,103,1.0,5.0,98,0.00,CLR,,0.00,WeatherDisplay:10.37,2013-01-03 12:40:00,
2013-01-03 07:50:00,62.5,61.9,30.07,ENE,77,1.0,3.0,98,0.00,CLR,,0.00,WeatherDisplay:10.37,2013-01-03 12:50:00,
2013-01-03 08:00:00,62.6,62.0,30.08,East,86,0.0,3.0,98,0.00,CLR,,0.00,WeatherDisplay:10.37,2013-01-03 13:00:00,
2013-01-03 08:10:00,62.7,62.1,30.08,East,84,0.0,3.0,98,0.00,CLR,,0.00,WeatherDisplay:10.37,2013-01-03 13:10:00,
2013-01-03 08:20:00,62.8,62.2,30.08,East,90,0.0,2.0,98,0.00,CLR,,0.00,WeatherDisplay:10.37,2013-01-03 13:20:00,
2013-01-03 08:30:00,63.0,62.5,30.08,East,92,1.0,3.0,98,0.00,CLR,,0.00,WeatherDisplay:10.37,2013-01-03 13:30:00,
2013-01-03 08:40:00,63.6,63.4,30.08,East,83,1.0,3.0,99,0.00,,,0.00,WeatherDisplay:10.37,2013-01-03 13:40:00,
2013-01-03 08:50:00,64.1,63.8,30.08,East,86,2.0,5.0,99,0.00,,,0.00,WeatherDisplay:10.37,2013-01-03 13:50:00,
2013-01-03 09:00:00,64.5,63.9,30.09,ESE,104,1.0,4.0,98,0.00,CLR,,0.00,WeatherDisplay:10.37,2013-01-03 14:00:00,
2013-01-03 09:10:00,65.1,64.5,30.09,East,90,0.0,3.0,98,0.00,CLR,,0.00,WeatherDisplay:10.37,2013-01-03 14:10:00,
2013-01-03 09:20:00,65.9,65.4,30.09,ESE,105,1.0,5.0,98,0.00,CLR,,0.00,WeatherDisplay:10.37,2013-01-03 14:20:00,
2013-01-03 09:30:00,66.6,65.5,30.09,SE,126,1.0,4.0,96,0.00,CLR,,0.00,WeatherDisplay:10.37,2013-01-03 14:30:00,
2013-01-03 09:40:00,67.2,65.4,30.09,ESE,120,2.0,5.0,94,0.00,CLR,,0.00,WeatherDisplay:10.37,2013-01-03 14:40:00,
2013-01-03 09:50:00,67.5,65.8,30.09,ESE,112,3.0,6.0,94,0.00,CLR,,0.00,WeatherDisplay:10.37,2013-01-03 14:50:00,
2013-01-03 10:00:00,68.2,66.1,30.09,ESE,110,2.0,6.0,93,0.00,CLR,,0.00,WeatherDisplay:10.37,2013-01-03 15:00:00,
2013-01-03 10:10:00,68.7,66.3,30.09,ESE,120,2.0,7.0,92,0.00,CLR,,0.00,WeatherDisplay:10.37,2013-01-03 15:10:00,
2013-01-03 10:20:00,69.5,66.8,30.10,ESE,110,3.0,7.0,91,0.00,CLR,,0.00,WeatherDisplay:10.37,2013-01-03 15:20:00,
2013-01-03 10:30:00,70.0,66.9,30.09,ESE,112,2.0,6.0,90,0.00,CLR,,0.00,WeatherDisplay:10.37,2013-01-03 15:30:00,
2013-01-03 10:40:00,70.7,67.3,30.09,ESE,119,1.0,6.0,89,0.00,CLR,,0.00,WeatherDisplay:10.37,2013-01-03 15:40:00,
2013-01-03 10:50:00,71.4,68.0,30.09,ESE,111,1.0,8.0,89,0.00,CLR,,0.00,WeatherDisplay:10.37,2013-01-03 15:50:00,
2013-01-03 11:00:00,71.7,68.3,30.09,ESE,116,2.0,6.0,89,0.00,CLR,,0.00,WeatherDisplay:10.37,2013-01-03 16:00:00,
2013-01-03 11:10:00,72.8,68.4,30.09,SE,124,1.0,6.0,86,0.00,CLR,,0.00,WeatherDisplay:10.37,2013-01-03 16:10:00,
2013-01-03 11:20:00,73.4,68.3,30.08,ESE,119,3.0,7.0,84,0.00,CLR,,0.00,WeatherDisplay:10.37,2013-01-03 16:20:00,
2013-01-03 11:30:00,73.9,68.4,30.08,ESE,120,2.0,8.0,83,0.00,CLR,,0.00,WeatherDisplay:10.37,2013-01-03 16:30:00,
2013-01-03 11:40:00,74.4,69.3,30.08,SE,127,1.0,4.0,84,0.00,CLR,,0.00,WeatherDisplay:10.37,2013-01-03 16:40:00,
2013-01-03 11:50:00,75.2,69.4,30.07,SE,129,3.0,9.0,82,0.00,CLR,,0.00,WeatherDisplay:10.37,2013-01-03 16:50:00,
2013-01-03 12:00:00,75.6,69.7,30.06,SE,128,3.0,7.0,82,0.00,CLR,,0.00,WeatherDisplay:10.37,2013-01-03 17:00:00,
2013-01-03 12:10:00,76.3,70.0,30.06,SE,129,5.0,8.0,81,0.00,CLR,,0.00,WeatherDisplay:10.37,2013-01-03 17:10:00,
2013-01-03 12:20:00,77.1,70.5,30.05,SE,137,3.0,8.0,80,0.00,CLR,,0.00,WeatherDisplay:10.37,2013-01-03 17:20:00,
2013-01-03 12:30:00,77.9,70.5,30.04,SE,142,3.0,7.0,78,0.00,CLR,,0.00,WeatherDisplay:10.37,2013-01-03 17:30:00,
2013-01-03 12:40:00,77.6,70.2,30.03,SE,137,2.0,9.0,78,0.00,CLR,,0.00,WeatherDisplay:10.37,2013-01-03 17:40:00,
2013-01-03 12:50:00,77.8,70.4,30.03,SE,141,5.0,8.0,78,0.00,CLR,,0.00,WeatherDisplay:10.37,2013-01-03 17:50:00,
2013-01-03 13:00:00,77.9,70.1,30.03,SE,137,2.0,12.0,77,0.00,CLR,,0.00,WeatherDisplay:10.37,2013-01-03 18:00:00,
2013-01-03 13:10:00,78.2,70.3,30.03,South,172,2.0,6.0,77,0.00,CLR,,0.00,WeatherDisplay:10.37,2013-01-03 18:10:00,
2013-01-03 13:20:00,78.2,70.0,30.02,SSE,151,3.0,10.0,76,0.00,CLR,,0.00,WeatherDisplay:10.37,2013-01-03 18:20:00,
2013-01-03 13:30:00,78.0,69.8,30.02,SSE,162,3.0,12.0,76,0.00,CLR,,0.00,WeatherDisplay:10.37,2013-01-03 18:30:00,
2013-01-03 13:40:00,77.7,69.5,30.02,SSW,206,2.0,8.0,76,0.00,CLR,,0.00,WeatherDisplay:10.37,2013-01-03 18:40:00,
2013-01-03 13:50:00,77.7,69.5,30.02,SSE,163,3.0,12.0,76,0.00,CLR,,0.00,WeatherDisplay:10.37,2013-01-03 18:50:00,
2013-01-03 14:00:00,77.9,69.7,30.02,SSE,168,5.0,10.0,76,0.00,CLR,,0.00,WeatherDisplay:10.37,2013-01-03 19:00:00,
2013-01-03 14:10:00,77.9,69.3,30.02,SSE,155,3.0,12.0,75,0.00,CLR,,0.00,WeatherDisplay:10.37,2013-01-03 19:10:00,
2013-01-03 15:00:00,77.8,69.2,30.02,SSE,165,3.0,9.0,75,0.00,CLR,,0.00,WeatherDisplay:10.37,2013-01-03 20:00:00,
2013-01-03 15:10:00,77.5,69.3,30.02,SE,145,1.0,7.0,76,0.00,CLR,,0.00,WeatherDisplay:10.37,2013-01-03 20:10:00,
2013-01-03 15:20:00,77.5,69.3,30.02,South,169,2.0,10.0,76,0.00,CLR,,0.00,WeatherDisplay:10.37,2013-01-03 20:20:00,
2013-01-03 15:30:00,77.5,69.3,30.02,South,171,3.0,8.0,76,0.00,CLR,,0.00,WeatherDisplay:10.37,2013-01-03 20:30:00,
2013-01-03 15:40:00,77.0,69.6,30.02,South,173,2.0,8.0,78,0.00,CLR,,0.00,WeatherDisplay:10.37,2013-01-03 20:40:00,
2013-01-03 15:50:00,76.9,69.1,30.02,South,172,2.0,7.0,77,0.00,CLR,,0.00,WeatherDisplay:10.37,2013-01-03 20:50:00,
2013-01-03 16:00:00,76.6,69.2,30.03,South,182,2.0,9.0,78,0.00,CLR,,0.00,WeatherDisplay:10.37,2013-01-03 21:00:00,
2013-01-03 16:10:00,76.4,69.4,30.03,South,170,2.0,7.0,79,0.00,CLR,,0.00,WeatherDisplay:10.37,2013-01-03 21:10:00,
2013-01-03 16:20:00,76.1,69.5,30.03,SSE,157,2.0,8.0,80,0.00,CLR,,0.00,WeatherDisplay:10.37,2013-01-03 21:20:00,
2013-01-03 16:30:00,75.6,69.4,30.04,South,174,3.0,8.0,81,0.00,CLR,,0.00,WeatherDisplay:10.37,2013-01-03 21:30:00,
2013-01-03 16:40:00,75.2,69.3,30.03,SSE,161,2.0,6.0,82,0.00,CLR,,0.00,WeatherDisplay:10.37,2013-01-03 21:40:00,
2013-01-03 16:50:00,74.8,69.3,30.04,South,170,1.0,7.0,83,0.00,CLR,,0.00,WeatherDisplay:10.37,2013-01-03 21:50:00,
2013-01-03 17:00:00,74.4,69.2,30.04,SSE,159,2.0,6.0,84,0.00,CLR,,0.00,WeatherDisplay:10.37,2013-01-03 22:00:00,
2013-01-03 17:10:00,73.9,69.1,30.04,SSE,162,1.0,6.0,85,0.00,CLR,,0.00,WeatherDisplay:10.37,2013-01-03 22:10:00,
2013-01-03 17:20:00,73.4,68.9,30.04,SSE,154,1.0,3.0,86,0.00,CLR,,0.00,WeatherDisplay:10.37,2013-01-03 22:20:00,
2013-01-03 17:30:00,72.9,68.8,30.04,SE,145,3.0,7.0,87,0.00,CLR,,0.00,WeatherDisplay:10.37,2013-01-03 22:30:00,
2013-01-03 17:40:00,72.5,68.4,30.04,SE,132,2.0,6.0,87,0.00,CLR,,0.00,WeatherDisplay:10.37,2013-01-03 22:40:00,
2013-01-03 17:50:00,72.2,68.4,30.05,South,178,1.0,6.0,88,0.00,CLR,,0.00,WeatherDisplay:10.37,2013-01-03 22:50:00,
2013-01-03 18:00:00,71.9,68.5,30.05,SSE,147,0.0,4.0,89,0.00,CLR,,0.00,WeatherDisplay:10.37,2013-01-03 23:00:00,
2013-01-03 18:10:00,71.7,68.3,30.06,SSE,156,1.0,4.0,89,0.00,CLR,,0.00,WeatherDisplay:10.37,2013-01-03 23:10:00,
2013-01-03 18:20:00,71.7,68.3,30.07,SSE,163,1.0,2.0,89,0.00,CLR,,0.00,WeatherDisplay:10.37,2013-01-03 23:20:00,
2013-01-03 18:30:00,71.6,68.2,30.07,South,174,0.0,4.0,89,0.00,CLR,,0.00,WeatherDisplay:10.37,2013-01-03 23:30:00,
2013-01-03 18:40:00,71.5,68.5,30.07,South,182,1.0,4.0,90,0.00,CLR,,0.00,WeatherDisplay:10.37,2013-01-03 23:40:00,
2013-01-03 18:50:00,71.5,68.4,30.08,South,177,1.0,5.0,90,0.00,CLR,,0.00,WeatherDisplay:10.37,2013-01-03 23:50:00,
2013-01-03 19:00:00,71.5,68.4,30.08,South,172,0.0,5.0,90,0.00,CLR,,0.00,WeatherDisplay:10.37,2013-01-04 00:00:00,
2013-01-03 19:10:00,71.4,68.6,30.08,SSE,164,0.0,4.0,91,0.00,CLR,,0.00,WeatherDisplay:10.37,2013-01-04 00:10:00,
2013-01-03 19:20:00,71.3,68.5,30.08,South,184,1.0,5.0,91,0.00,CLR,,0.00,WeatherDisplay:10.37,2013-01-04 00:20:00,
2013-01-03 19:30:00,71.2,68.4,30.08,SE,136,0.0,4.0,91,0.00,CLR,,0.00,WeatherDisplay:10.37,2013-01-04 00:30:00,
2013-01-03 19:40:00,71.1,68.3,30.08,South,169,1.0,4.0,91,0.00,CLR,,0.00,WeatherDisplay:10.37,2013-01-04 00:40:00,
2013-01-03 19:50:00,71.2,68.4,30.08,South,171,0.0,5.0,91,0.00,CLR,,0.00,WeatherDisplay:10.37,2013-01-04 00:50:00,
2013-01-03 20:00:00,71.1,68.3,30.09,South,174,0.0,4.0,91,0.00,CLR,,0.00,WeatherDisplay:10.37,2013-01-04 01:00:00,
2013-01-03 20:10:00,71.1,68.7,30.09,SE,145,0.0,3.0,92,0.00,CLR,,0.00,WeatherDisplay:10.37,2013-01-04 01:10:00,
2013-01-03 20:20:00,71.0,68.6,30.09,SE,143,0.0,3.0,92,0.00,CLR,,0.00,WeatherDisplay:10.37,2013-01-04 01:20:00,
2013-01-03 20:30:00,70.9,68.5,30.09,SSE,166,0.0,3.0,92,0.00,CLR,,0.00,WeatherDisplay:10.37,2013-01-04 01:30:00,
2013-01-03 20:40:00,70.9,68.8,30.09,South,176,1.0,4.0,93,0.00,CLR,,0.00,WeatherDisplay:10.37,2013-01-04 01:40:00,
2013-01-03 20:50:00,70.8,68.7,30.09,SSE,168,0.0,4.0,93,0.00,CLR,,0.00,WeatherDisplay:10.37,2013-01-04 01:50:00,
2013-01-03 21:00:00,70.8,68.7,30.09,SE,146,0.0,3.0,93,0.00,CLR,,0.00,WeatherDisplay:10.37,2013-01-04 02:00:00,
2013-01-03 21:10:00,70.7,68.6,30.09,SE,139,0.0,4.0,93,0.00,CLR,,0.00,WeatherDisplay:10.37,2013-01-04 02:10:00,
2013-01-03 21:20:00,70.7,68.5,30.10,SE,136,0.0,3.0,93,0.00,CLR,,0.00,WeatherDisplay:10.37,2013-01-04 02:20:00,
2013-01-03 21:30:00,70.6,68.5,30.10,SSE,165,0.0,4.0,93,0.00,CLR,,0.00,WeatherDisplay:10.37,2013-01-04 02:30:00,
2013-01-03 21:40:00,70.5,68.3,30.10,South,177,0.0,3.0,93,0.00,CLR,,0.00,WeatherDisplay:10.37,2013-01-04 02:40:00,
2013-01-03 21:50:00,70.4,68.6,30.10,South,174,1.0,4.0,94,0.00,CLR,,0.00,WeatherDisplay:10.37,2013-01-04 02:50:00,
2013-01-03 22:00:00,70.4,68.6,30.10,SSE,149,0.0,3.0,94,0.00,CLR,,0.00,WeatherDisplay:10.37,2013-01-04 03:00:00,
2013-01-03 22:10:00,70.3,68.5,30.10,SSE,151,0.0,4.0,94,0.00,CLR,,0.00,WeatherDisplay:10.37,2013-01-04 03:10:00,
2013-01-03 22:20:00,70.3,68.5,30.11,SSE,166,0.0,3.0,94,0.00,CLR,,0.00,WeatherDisplay:10.37,2013-01-04 03:20:00,
2013-01-03 22:30:00,70.3,68.5,30.11,SSE,161,0.0,2.0,94,0.00,CLR,,0.00,WeatherDisplay:10.37,2013-01-04 03:30:00,
2013-01-03 22:40:00,70.3,68.8,30.11,SSE,160,0.0,3.0,95,0.00,CLR,,0.00,WeatherDisplay:10.37,2013-01-04 03:40:00,
2013-01-03 22:50:00,70.3,68.8,30.11,SSE,160,0.0,2.0,95,0.00,CLR,,0.00,WeatherDisplay:10.37,2013-01-04 03:50:00,
2013-01-03 23:00:00,70.3,68.8,30.11,SSE,160,0.0,2.0,95,0.00,CLR,,0.00,WeatherDisplay:10.37,2013-01-04 04:00:00,
2013-01-03 23:10:00,70.3,68.8,30.11,SSE,152,0.0,3.0,95,0.00,CLR,,0.00,WeatherDisplay:10.37,2013-01-04 04:10:00,
2013-01-03 23:20:00,70.3,68.8,30.11,SE,128,0.0,3.0,95,0.00,CLR,,0.00,WeatherDisplay:10.37,2013-01-04 04:20:00,
2013-01-03 23:30:00,70.3,68.8,30.11,SE,131,0.0,2.0,95,0.00,CLR,,0.00,WeatherDisplay:10.37,2013-01-04 04:30:00,
2013-01-03 23:40:00,70.3,68.8,30.11,SE,134,0.0,3.0,95,0.00,CLR,,0.00,WeatherDisplay:10.37,2013-01-04 04:40:00,
2013-01-03 23:50:00,70.3,68.8,30.10,SE,137,0.0,2.0,95,0.00,CLR,,0.00,WeatherDisplay:10.37,2013-01-04 04:50:00,